Location: Jetmore
(38.0845°N, 99.8935°W)
Time: 13:50:36
(UTC+00:00)

Envisat - Pass Details

Date: 20 September 2021
Orbit: 764 x 766 km, 98.2° (Epoch: 23 October)

Event Time Altitude Azimuth Distance (km) Brightness Sun altitude
Rises 10:27:06 0° 36° (NE) 3,236 7.1 -23.6°
Reaches altitude 10° 10:30:48 10° 64° (ENE) 2,304 6.6 -23.0°
Maximum altitude 10:33:04 13° 90° (E) 2,100 6.2 -22.5°
Drops below altitude 10° 10:35:20 10° 117° (ESE) 2,296 6.0 -22.1°
Sets 10:39:00 0° 145° (SE) 3,215 6.4 -21.4°
